2022-01-26 00:03:12 r, 19.15m,0000000001Hz,0000250893c,0000000.544s,-010.4C,00002191
2022-01-26 00:13:10 r, 18.97m,0000000002Hz,0000212334c,0000000.461s,-010.4C,00002191
2022-01-26 00:23:09 r, 19.51m,0000000001Hz,0000349234c,0000000.758s,-010.4C,00002191
2022-01-26 00:33:10 r, 19.62m,0000000001Hz,0000385894c,0000000.837s,-010.4C,00002191
2022-01-26 00:43:11 r, 19.45m,0000000001Hz,0000330092c,0000000.716s,-010.4C,00002191
2022-01-26 00:53:09 r, 19.33m,0000000002Hz,0000298539c,0000000.648s,-010.0C,00002191
2022-01-26 01:03:11 r, 19.14m,0000000002Hz,0000249820c,0000000.542s,-010.0C,00002191
2022-01-26 01:13:10 r, 18.83m,0000000002Hz,0000186784c,0000000.405s,-009.7C,00002191
2022-01-26 01:23:09 r, 18.46m,0000000003Hz,0000133139c,0000000.289s,-009.7C,00002191
2022-01-26 01:33:10 r, 17.98m,0000000005Hz,0000085492c,0000000.186s,-009.4C,00002191
2022-01-26 01:43:12 r, 18.42m,0000000004Hz,0000128114c,0000000.278s,-009.1C,00002191
2022-01-26 01:53:09 r, 18.21m,0000000004Hz,0000105836c,0000000.230s,-008.8C,00002191
2022-01-26 02:03:12 r, 18.28m,0000000004Hz,0000112535c,0000000.244s,-008.4C,00002191
2022-01-26 02:13:10 r, 18.51m,0000000004Hz,0000138155c,0000000.300s,-008.1C,00002191
2022-01-26 02:23:09 r, 18.11m,0000000004Hz,0000095004c,0000000.206s,-007.8C,00002191
2022-01-26 02:33:12 r, 17.99m,0000000005Hz,0000085029c,0000000.185s,-007.8C,00002191
2022-01-26 02:43:10 r, 17.51m,0000000008Hz,0000054865c,0000000.119s,-007.5C,00002191
2022-01-26 02:53:09 r, 17.69m,0000000008Hz,0000064828c,0000000.141s,-007.1C,00002191
2022-01-26 03:03:10 r, 17.64m,0000000008Hz,0000062071c,0000000.135s,-007.1C,00002191
2022-01-26 03:13:11 r, 17.65m,0000000007Hz,0000062285c,0000000.135s,-006.8C,00002191
2022-01-26 03:23:09 r, 17.95m,0000000006Hz,0000082290c,0000000.179s,-006.5C,00002191
2022-01-26 03:33:11 r, 17.88m,0000000006Hz,0000077562c,0000000.168s,-006.5C,00002191
2022-01-26 03:43:10 r, 17.54m,0000000008Hz,0000056224c,0000000.122s,-006.5C,00002191
2022-01-26 03:53:09 r, 17.05m,0000000014Hz,0000036175c,0000000.079s,-006.2C,00002191
2022-01-26 04:03:10 r, 16.89m,0000000015Hz,0000031431c,0000000.068s,-006.2C,00002191
2022-01-26 04:13:12 r, 16.90m,0000000015Hz,0000031737c,0000000.069s,-005.9C,00002191
2022-01-26 04:23:09 r, 16.93m,0000000014Hz,0000032308c,0000000.070s,-005.9C,00002191
2022-01-26 04:33:09 r, 17.05m,0000000013Hz,0000036367c,0000000.079s,-005.5C,00002191
2022-01-26 04:43:10 r, 17.29m,0000000010Hz,0000045183c,0000000.098s,-005.5C,00002191
2022-01-26 04:53:09 r, 17.45m,0000000008Hz,0000052427c,0000000.114s,-005.5C,00002191
2022-01-26 05:03:12 r, 17.04m,0000000012Hz,0000035991c,0000000.078s,-005.2C,00002191
2022-01-26 05:13:10 r, 16.85m,0000000016Hz,0000029971c,0000000.065s,-005.2C,00002191
2022-01-26 05:23:09 r, 16.85m,0000000015Hz,0000030080c,0000000.065s,-005.2C,00002191
2022-01-26 05:33:10 r, 17.09m,0000000012Hz,0000037498c,0000000.081s,-004.9C,00002191
2022-01-26 05:43:12 r, 17.18m,0000000012Hz,0000040832c,0000000.089s,-004.9C,00002191
2022-01-26 05:53:09 r, 17.04m,0000000012Hz,0000035889c,0000000.078s,-004.6C,00002191
2022-01-26 06:03:09 r, 17.41m,0000000009Hz,0000050279c,0000000.109s,-004.2C,00002191
2022-01-26 06:13:12 r, 17.89m,0000000006Hz,0000078882c,0000000.171s,-004.2C,00002191
2022-01-26 06:23:09 r, 18.17m,0000000005Hz,0000101656c,0000000.221s,-003.9C,00002191
2022-01-26 06:33:09 r, 18.94m,0000000002Hz,0000204364c,0000000.443s,-003.9C,00002191
2022-01-26 06:43:10 r, 18.26m,0000000004Hz,0000110339c,0000000.239s,-003.9C,00002191
2022-01-26 06:53:09 r, 18.30m,0000000004Hz,0000114214c,0000000.248s,-003.6C,00002191
2022-01-26 07:03:12 r, 18.20m,0000000004Hz,0000104499c,0000000.227s,-003.6C,00002191
2022-01-26 07:13:10 r, 17.27m,0000000010Hz,0000044430c,0000000.096s,-003.6C,00002191
2022-01-26 07:23:09 r, 15.59m,0000000048Hz,0000009477c,0000000.021s,-003.9C,00002191
2022-01-26 07:33:10 r, 13.37m,0000000378Hz,0000000000c,0000000.000s,-003.6C,00002191
2022-01-26 07:43:11 r, 11.35m,0000002458Hz,0000000000c,0000000.000s,-003.6C,00002191
2022-01-26 07:53:09 r, 09.55m,0000012806Hz,0000000000c,0000000.000s,-003.6C,00002191
2022-01-26 08:03:11 r, 08.13m,0000047236Hz,0000000000c,0000000.000s,-003.3C,00002191
2022-01-26 08:13:10 r, 07.03m,0000130226Hz,0000000000c,0000000.000s,-003.0C,00002191
2022-01-26 08:23:09 r, 06.36m,0000242285Hz,0000000000c,0000000.000s,-002.6C,00002191
2022-01-26 08:33:10 r, 06.07m,0000316470Hz,0000000000c,0000000.000s,-002.3C,00002191
2022-01-26 08:43:12 r, 05.88m,0000376314Hz,0000000000c,0000000.000s,-002.0C,00002191
2022-01-26 08:53:09 r, 00.00m,0000504202Hz,0000000000c,0000000.000s,-001.7C,00002191
2022-01-26 09:03:12 r, 05.92m,0000363857Hz,0000000000c,0000000.000s,-001.7C,00002191
2022-01-26 09:13:10 r, 05.82m,0000397176Hz,0000000000c,0000000.000s,-001.3C,00002191
2022-01-26 09:23:09 r, 00.00m,0000578761Hz,0000000000c,0000000.000s,-001.0C,00002191
2022-01-26 09:33:12 r, 00.00m,0000599048Hz,0000000000c,0000000.000s,-000.7C,00002191
2022-01-26 09:43:10 r, 00.00m,0000598998Hz,0000000000c,0000000.000s, 000.9C,00002191
2022-01-26 09:53:09 r, 00.00m,0000598862Hz,0000000000c,0000000.000s, 001.9C,00002191
2022-01-26 10:03:10 r, 00.00m,0000598901Hz,0000000000c,0000000.000s, 002.5C,00002191
2022-01-26 10:13:11 r, 00.00m,0000598895Hz,0000000000c,0000000.000s, 002.5C,00002191
2022-01-26 10:23:09 r, 00.00m,0000598922Hz,0000000000c,0000000.000s, 002.2C,00002191
2022-01-26 10:33:09 r, 00.00m,0000598904Hz,0000000000c,0000000.000s, 002.9C,00002191
2022-01-26 10:43:12 r, 00.00m,0000598819Hz,0000000000c,0000000.000s, 003.8C,00002191
2022-01-26 10:53:09 r, 00.00m,0000598668Hz,0000000000c,0000000.000s, 004.5C,00002191
2022-01-26 11:03:11 r, 00.00m,0000598582Hz,0000000000c,0000000.000s, 005.8C,00002191
2022-01-26 11:13:10 r, 00.00m,0000598363Hz,0000000000c,0000000.000s, 007.4C,00002191
2022-01-26 11:23:09 r, 00.00m,0000598342Hz,0000000000c,0000000.000s, 008.0C,00002191
2022-01-26 11:33:12 r, 00.00m,0000598203Hz,0000000000c,0000000.000s, 008.3C,00002191
2022-01-26 11:43:10 r, 00.00m,0000598140Hz,0000000000c,0000000.000s, 009.0C,00002191
2022-01-26 11:53:09 r, 00.00m,0000598289Hz,0000000000c,0000000.000s, 009.6C,00002191
2022-01-26 12:03:12 r, 00.00m,0000598225Hz,0000000000c,0000000.000s, 009.9C,00002191
2022-01-26 12:13:10 r, 00.00m,0000598066Hz,0000000000c,0000000.000s, 010.3C,00002191
2022-01-26 12:23:09 r, 00.00m,0000597926Hz,0000000000c,0000000.000s, 011.6C,00002191
2022-01-26 12:33:09 r, 00.00m,0000598151Hz,0000000000c,0000000.000s, 011.2C,00002191
2022-01-26 12:43:09 r, 00.00m,0000597999Hz,0000000000c,0000000.000s, 011.2C,00002191
2022-01-26 12:53:12 r, 00.00m,0000598029Hz,0000000000c,0000000.000s, 011.2C,00002191
2022-01-26 13:03:09 r, 00.00m,0000597998Hz,0000000000c,0000000.000s, 011.9C,00002191
2022-01-26 13:13:12 r, 00.00m,0000598070Hz,0000000000c,0000000.000s, 011.9C,00002191
2022-01-26 13:23:10 r, 00.00m,0000598149Hz,0000000000c,0000000.000s, 011.6C,00002191
2022-01-26 13:33:09 r, 00.00m,0000598099Hz,0000000000c,0000000.000s, 011.2C,00002191
2022-01-26 13:43:10 r, 00.00m,0000598196Hz,0000000000c,0000000.000s, 011.2C,00002191
2022-01-26 13:53:11 r, 00.00m,0000598219Hz,0000000000c,0000000.000s, 011.6C,00002191
2022-01-26 14:03:09 r, 00.00m,0000597944Hz,0000000000c,0000000.000s, 012.8C,00002191
2022-01-26 14:13:11 r, 00.00m,0000597957Hz,0000000000c,0000000.000s, 013.5C,00002191
2022-01-26 14:23:10 r, 00.00m,0000597956Hz,0000000000c,0000000.000s, 013.8C,00002191
2022-01-26 14:33:09 r, 00.00m,0000597898Hz,0000000000c,0000000.000s, 013.8C,00002191
2022-01-26 14:43:10 r, 00.00m,0000597857Hz,0000000000c,0000000.000s, 013.8C,00002191
2022-01-26 14:53:12 r, 00.00m,0000597948Hz,0000000000c,0000000.000s, 014.1C,00002191
2022-01-26 15:03:09 r, 00.00m,0000597890Hz,0000000000c,0000000.000s, 014.1C,00002191
2022-01-26 15:13:12 r, 00.00m,0000598040Hz,0000000000c,0000000.000s, 013.2C,00002191
2022-01-26 15:23:10 r, 00.00m,0000598025Hz,0000000000c,0000000.000s, 012.2C,00002191
2022-01-26 15:33:09 r, 00.00m,0000598133Hz,0000000000c,0000000.000s, 011.9C,00002191
2022-01-26 15:43:12 r, 00.00m,0000598065Hz,0000000000c,0000000.000s, 011.6C,00002191
2022-01-26 15:53:10 r, 00.00m,0000598227Hz,0000000000c,0000000.000s, 011.9C,00002191
2022-01-26 16:03:09 r, 00.00m,0000598175Hz,0000000000c,0000000.000s, 011.6C,00002191
2022-01-26 16:13:10 r, 00.00m,0000598144Hz,0000000000c,0000000.000s, 011.6C,00002191
2022-01-26 16:23:11 r, 00.00m,0000503021Hz,0000000000c,0000000.000s, 011.2C,00002191
2022-01-26 16:33:09 r, 00.00m,0000585297Hz,0000000000c,0000000.000s, 010.6C,00002191
2022-01-26 16:43:11 r, 00.00m,0000545383Hz,0000000000c,0000000.000s, 010.3C,00002191
2022-01-26 16:53:10 r, 06.08m,0000314276Hz,0000000000c,0000000.000s, 009.9C,00002191
2022-01-26 17:03:09 r, 06.75m,0000168757Hz,0000000000c,0000000.000s, 009.6C,00002191
2022-01-26 17:13:10 r, 07.59m,0000077858Hz,0000000000c,0000000.000s, 009.3C,00002191
2022-01-26 17:23:12 r, 08.74m,0000027030Hz,0000000000c,0000000.000s, 009.3C,00002191
2022-01-26 17:33:09 r, 10.35m,0000006092Hz,0000000000c,0000000.000s, 009.3C,00002191
2022-01-26 17:43:12 r, 12.37m,0000000949Hz,0000000000c,0000000.000s, 009.3C,00002191
2022-01-26 17:53:10 r, 14.31m,0000000160Hz,0000000000c,0000000.000s, 009.3C,00002191
2022-01-26 18:03:09 r, 15.89m,0000000037Hz,0000012531c,0000000.027s, 009.3C,00002191
2022-01-26 18:13:12 r, 16.83m,0000000016Hz,0000029228c,0000000.063s, 009.3C,00002191
2022-01-26 18:23:10 r, 17.27m,0000000010Hz,0000044177c,0000000.096s, 009.3C,00002191
2022-01-26 18:33:09 r, 17.32m,0000000010Hz,0000046017c,0000000.100s, 009.3C,00002191
2022-01-26 18:43:10 r, 17.38m,0000000009Hz,0000048504c,0000000.105s, 009.3C,00002191
2022-01-26 18:53:11 r, 17.26m,0000000011Hz,0000043541c,0000000.094s, 009.3C,00002191
2022-01-26 19:03:09 r, 17.23m,0000000011Hz,0000042647c,0000000.093s, 009.3C,00002191
2022-01-26 19:13:11 r, 17.20m,0000000011Hz,0000041441c,0000000.090s, 009.0C,00002191
2022-01-26 19:23:10 r, 17.40m,0000000009Hz,0000049781c,0000000.108s, 009.0C,00002191
2022-01-26 19:33:09 r, 17.82m,0000000006Hz,0000073604c,0000000.160s, 009.0C,00002191
2022-01-26 19:43:10 r, 17.41m,0000000009Hz,0000050294c,0000000.109s, 009.0C,00002191
2022-01-26 19:53:12 r, 17.48m,0000000008Hz,0000053491c,0000000.116s, 009.0C,00002191
2022-01-26 20:03:09 r, 17.76m,0000000007Hz,0000069426c,0000000.151s, 009.0C,00002191
2022-01-26 20:13:12 r, 17.46m,0000000008Hz,0000052667c,0000000.114s, 009.0C,00002191
2022-01-26 20:23:10 r, 17.23m,0000000010Hz,0000042738c,0000000.093s, 009.0C,00002191
2022-01-26 20:33:09 r, 17.72m,0000000007Hz,0000066793c,0000000.145s, 009.0C,00002191
2022-01-26 20:43:12 r, 17.61m,0000000007Hz,0000060213c,0000000.131s, 009.0C,00002191
2022-01-26 20:53:10 r, 17.78m,0000000006Hz,0000070195c,0000000.152s, 009.0C,00002191
2022-01-26 21:03:09 r, 17.60m,0000000008Hz,0000059564c,0000000.129s, 009.0C,00002191
2022-01-26 21:13:10 r, 17.47m,0000000009Hz,0000052821c,0000000.115s, 009.0C,00002191
2022-01-26 21:23:10 r, 17.88m,0000000006Hz,0000077067c,0000000.167s, 009.0C,00002191
2022-01-26 21:33:09 r, 18.13m,0000000005Hz,0000097000c,0000000.211s, 009.0C,00002191
2022-01-26 21:43:09 r, 18.41m,0000000003Hz,0000126643c,0000000.275s, 008.7C,00002191
2022-01-26 21:53:12 r, 18.02m,0000000005Hz,0000088730c,0000000.193s, 008.7C,00002191
2022-01-26 22:03:09 r, 17.89m,0000000006Hz,0000078892c,0000000.171s, 008.7C,00002191
2022-01-26 22:13:12 r, 17.55m,0000000008Hz,0000057140c,0000000.124s, 008.7C,00002191
2022-01-26 22:23:10 r, 17.53m,0000000008Hz,0000056356c,0000000.122s, 008.7C,00002191
2022-01-26 22:33:09 r, 17.29m,0000000010Hz,0000045276c,0000000.098s, 008.7C,00002191
2022-01-26 22:43:12 r, 17.34m,0000000010Hz,0000047399c,0000000.103s, 008.7C,00002191
2022-01-26 22:53:10 r, 17.47m,0000000009Hz,0000053365c,0000000.116s, 008.7C,00002191
2022-01-26 23:03:09 r, 17.76m,0000000007Hz,0000070089c,0000000.152s, 008.3C,00002191
2022-01-26 23:13:10 r, 17.82m,0000000006Hz,0000073982c,0000000.161s, 008.3C,00002191
2022-01-26 23:23:11 r, 17.71m,0000000007Hz,0000066600c,0000000.145s, 008.0C,00002191
2022-01-26 23:33:09 r, 17.45m,0000000009Hz,0000052593c,0000000.114s, 007.4C,00002191
2022-01-26 23:43:09 r, 18.10m,0000000005Hz,0000095297c,0000000.207s, 007.4C,00002191
2022-01-26 23:53:09 r, 18.14m,0000000005Hz,0000099268c,0000000.215s, 006.7C,00002191
